Vicksburg, LA

10:48 PM CDT on April 22, 2018 (GMT -0500)
Vicksburg Tallulah Regional

Weather History for KTVR - July, 2013

Change the Weather History Date:

Tuesday, July 9, 2013

  Actual Average Record
Temperature  
Mean Temperature 82 °F 81 °F  
Max Temperature 93 °F 92 °F 100 °F (2000)
Min Temperature 71 °F 71 °F 63 °F (1950)
Degree Days  
Heating Degree Days 0 0  
Month to date heating degree days 0 0  
Since 1 June heating degree days 0 0  
Since 1 July heating degree days 0 0  
Cooling Degree Days 17 16  
Month to date cooling degree days 115 144  
Year to date cooling degree days 886 932  
Since 1 June cooling degree days 556 562  
Growing Degree Days 31 (Base 50)    
Moisture  
Dew Point 75 °F    
Average Humidity 78    
Maximum Humidity 100    
Minimum Humidity 56    
Precipitation  
Precipitation T in 0.11 in 1.70 in (1956)
Month to date precipitation T 1.09  
Year to date precipitation 40.65 30.38  
Sea Level Pressure  
Sea Level Pressure 30.14 in    
Wind  
Wind Speed 3 mph (South)    
Max Wind Speed 13 mph    
Max Gust Speed 17 mph    
Visibility 9 miles    
Events      
T = Trace of Precipitation, MM = Missing Value Source: NWS Daily Summary

Daily Weather History Graph

Daily Weather History Graph

Search for Another Location

Airport or City:

Astronomy

Jul. 09, 2013 Rise Set
Actual Time 6:04 AM CDT 8:13 PM CDT
Civil Twilight 5:36 AM CDT 8:41 PM CDT
Nautical Twilight 5:02 AM CDT 9:16 PM CDT
Astronomical Twilight 4:25 AM CDT 9:52 PM CDT
Moon 7:21 AM CDT (7/9) 9:00 PM CDT (7/9)
Length of Visible Light 15h 05m
Length of Day
14h 09m
New Moon, 2% of the Moon is Illuminated
Jul 9
New Moon
Jul 15
First Quarter
Jul 22
Full
Jul 29
Last Quarter
Aug 6
New

Hourly Weather History & Observations

Time (CDT) Temp. Heat Index Dew Point Humidity Pressure Visibility Wind Dir Wind Speed Gust Speed Precip Events Conditions
12:53 AM 77.0 °F - 73.9 °F 90% 30.15 in 10.0 mi South 4.6 mph - N/A   Clear
1:53 AM 75.9 °F - 73.9 °F 94% 30.14 in 10.0 mi SSW 3.5 mph - N/A   Clear
2:53 AM 75.9 °F - 73.9 °F 94% 30.13 in 10.0 mi Calm Calm - N/A   Clear
3:53 AM 73.9 °F - 72.0 °F 93% 30.15 in 4.0 mi Calm Calm - N/A   Clear
4:53 AM 73.9 °F - 73.0 °F 97% 30.15 in 8.0 mi Calm Calm - N/A   Mostly Cloudy
5:27 AM 71.6 °F - 71.6 °F 100% 30.14 in 1.8 mi Calm Calm - N/A   Clear
5:39 AM 73.4 °F - 71.6 °F 94% 30.14 in 3.0 mi Calm Calm - N/A   Clear
5:53 AM 73.0 °F - 72.0 °F 96% 30.16 in 8.0 mi Calm Calm - N/A   Clear
6:53 AM 73.9 °F - 73.0 °F 97% 30.18 in 8.0 mi Calm Calm - N/A   Mostly Cloudy
7:53 AM 77.0 °F - 75.0 °F 94% 30.20 in 10.0 mi Calm Calm - N/A   Mostly Cloudy
8:53 AM 80.1 °F 85.4 °F 75.9 °F 87% 30.20 in 10.0 mi West 5.8 mph - N/A   Mostly Cloudy
9:53 AM 82.9 °F 91.8 °F 77.0 °F 82% 30.20 in 10.0 mi Variable 3.5 mph - N/A   Mostly Cloudy
10:53 AM 84.9 °F 94.1 °F 75.9 °F 74% 30.19 in 10.0 mi Calm Calm - N/A   Scattered Clouds
11:04 AM 87.8 °F 97.6 °F 75.2 °F 66% 30.17 in 10.0 mi West 5.8 mph - N/A   Mostly Cloudy
11:11 AM 87.8 °F 97.6 °F 75.2 °F 66% 30.17 in 10.0 mi SW 4.6 mph - N/A   Scattered Clouds
11:53 AM 87.1 °F 96.3 °F 75.0 °F 67% 30.18 in 10.0 mi Calm Calm - N/A   Mostly Cloudy
12:24 PM 87.8 °F 97.6 °F 75.2 °F 66% 30.15 in 10.0 mi Calm Calm - N/A   Mostly Cloudy
12:39 PM 87.8 °F 97.6 °F 75.2 °F 66% 30.15 in 10.0 mi SE 5.8 mph - N/A   Mostly Cloudy
12:53 PM 88.0 °F 98.5 °F 75.9 °F 67% 30.17 in 10.0 mi ESE 8.1 mph - N/A   Scattered Clouds
1:53 PM 88.0 °F 97.5 °F 75.0 °F 65% 30.16 in 10.0 mi ENE 4.6 mph - 0.00 in   Scattered Clouds
2:53 PM 91.0 °F 101.6 °F 75.0 °F 59% 30.13 in 10.0 mi Variable 4.6 mph - N/A   Clear
3:53 PM 91.0 °F 100.4 °F 73.9 °F 57% 30.11 in 10.0 mi Calm Calm - N/A   Clear
4:53 PM 91.0 °F 101.6 °F 75.0 °F 59% 30.09 in 10.0 mi SSE 5.8 mph - N/A   Clear
5:53 PM 90.0 °F 99.0 °F 73.9 °F 59% 30.07 in 10.0 mi SSW 4.6 mph - N/A   Clear
6:53 PM 89.1 °F 99.1 °F 75.0 °F 63% 30.07 in 10.0 mi South 8.1 mph - N/A   Clear
7:53 PM 86.0 °F 96.0 °F 75.9 °F 72% 30.06 in 10.0 mi SSW 3.5 mph - N/A   Clear
8:53 PM 81.0 °F 87.3 °F 75.9 °F 85% 30.09 in 10.0 mi SSE 4.6 mph - N/A   Clear
9:53 PM 79.0 °F - 75.0 °F 88% 30.09 in 10.0 mi South 4.6 mph - N/A   Clear
10:53 PM 79.0 °F - 75.9 °F 90% 30.09 in 10.0 mi South 4.6 mph - N/A   Clear
11:53 PM 78.1 °F - 75.0 °F 90% 30.09 in 10.0 mi South 3.5 mph - N/A   Clear